カタログに戻る

COSMOS 2251 DEB

運用中LEO
NORAD 34053·DEBRIS·🇷🇺 Russia

打ち上げ Jun 16, 1993 から Plesetsk Cosmodrome

Loading…

次のパス (今後24時間)

TLE

最新Source: Space-Track

元期: Sep 14, 2026, 02:41 UTC

1 34053U 93036JQ  26257.11203361  .00000166  00000-0  17384-3 0  9994
2 34053  73.8454 158.2594 0423366 261.0119  94.2856 13.49413731863980

AllMySatでCOSMOS 2251 DEBをリアルタイム追跡

Download on the App Store